Wetbulb
69.89 69.63 68.68 68.66 70.00 69.58 69.23 68.65 66.53 64.15 65.09 68.53 68.73 72.44 71.78 71.21 68.07 70.70 70.09 57.94 51.85 50.58 51.32 53.68 56.94 57.54 57.74 58.12 58.48 58.71 59.07 58.91 58.51 57.81 57.10 56.60 56.92 57.60
69.19 69.17 68.82 69.28 69.69 69.94 69.57 69.53 68.81 66.48 64.44 67.92 69.21 71.23 71.93 69.97 67.25 69.73 69.58 57.75 51.12 49.69 49.87 51.50 53.13 54.76 55.33 55.38 55.10 55.11 55.48 55.60 55.72 55.62 55.16 55.04 55.37 56.88
68.84 69.03 68.75 69.15 68.75 69.35 69.55 68.88 67.76 67.18 64.16 66.62 68.82 70.70 71.00 70.92 70.17 68.56 67.74 68.58 66.41 50.00 49.49 49.69 49.69 50.96 51.79 51.65 51.00 51.56 52.01 52.25 52.76 53.45 53.52 53.75 54.99 56.50
67.43 67.25 66.62 67.54 68.16 68.98 68.66 68.75 67.82 68.03 65.78 63.58 66.61 68.01 69.19 70.49 69.74 69.29 66.47 63.35 64.29 52.79 48.89 48.76 48.58 48.60 48.55 48.02 47.91 47.80 47.96 48.58 48.90 50.04 51.12 52.34 54.26 57.46
68.20 67.25 66.41 65.95 65.30 65.69 66.17 66.44 66.98 66.39 66.64 65.25 64.33 66.64 67.89 69.27 65.20 63.31 61.94 59.52 57.63 51.88 46.57 45.85 46.90 47.42 46.74 45.82 45.82 45.59 45.59 45.54 45.51 46.60 47.39 48.36 50.74 53.70
67.34 66.70 65.97 64.84 65.40 65.45 65.43 65.50 65.41 65.10 65.39 64.09 63.04 62.87 64.11 66.21 62.76 59.73 55.56 55.92 54.88 51.06 48.45 46.90 46.34 45.56 45.09 44.64 44.38 44.87 44.69 45.17 44.94 45.49 44.91 43.87 46.24 48.54
64.04 63.69 63.39 61.02 55.03 56.78 64.70 66.07 66.32 64.71 63.72 62.80 61.91 61.97 61.11 55.21 57.52 60.87 58.28 57.98 52.15 51.06 49.93 48.29 47.69 47.24 47.31 44.30 45.24 44.44 44.32 43.59 44.65 45.65 44.67 44.00 44.74 45.62
62.33 62.78 63.23 53.85 54.79 49.51 49.15 48.42 55.83 64.80 64.30 63.36 63.09 61.86 62.36 60.47 62.04 62.08 58.00 49.33 47.88 48.04 49.55 48.74 47.87 46.43 47.46 46.63 44.41 43.71 43.12 43.66 44.60 44.84 44.82 44.95 44.08 44.15
61.85 63.51 63.55 62.75 57.06 64.75 51.93 46.43 46.19 44.25 46.24 59.82 61.75 63.50 63.65 64.81 62.31 61.44 56.64 53.53 57.49 58.34 50.42 46.61 45.45 44.61 46.56 46.11 43.69 43.14 42.50 42.66 43.06 43.42 43.49 43.28 42.92 42.59
59.94 60.41 60.81 61.61 61.43 60.94 60.65 59.20 59.12 60.30 59.27 53.39 56.00 59.78 62.81 64.70 63.12 62.50 60.77 56.68 45.14 45.85 49.62 40.81 41.17 40.81 43.31 46.14 43.04 42.99 42.41 42.43 42.50 42.79 42.47 41.91 41.74 41.79
54.87 58.88 58.73 57.64 50.84 46.06 55.46 54.73 53.63 51.82 42.62 43.16 43.69 42.98 42.80 42.98 44.92 56.00 46.24 45.52 39.18 36.64 45.50 40.26 35.55 34.46 35.19 38.09 42.90 41.74 41.41 41.23 41.38 41.40 41.23 41.48 40.95 40.54
52.20 52.94 44.00 48.43 42.08 41.71 50.96 52.06 50.17 45.16 40.81 45.16 50.69 51.09 49.18 50.69 42.26 50.77 56.00 52.08 40.26 35.55 38.63 43.69 35.37 35.73 33.56 35.37 36.64 41.51 41.87 39.49 40.18 40.66 40.97 40.84 40.43 44.98
48.95 49.58 49.58 41.71 40.63 40.61 40.23 47.98 48.69 37.91 37.36 38.45 41.71 44.79 46.24 47.95 49.69 51.59 53.13 53.39 50.55 44.41 42.22 45.55 36.64 36.27 38.09 33.74 35.19 37.72 40.11 38.42 41.22 40.98 40.79 40.43 41.02 43.42
44.92 47.63 42.80 39.72 40.26 39.49 39.32 39.36 37.71 35.73 37.36 38.45 39.72 41.89 43.53 45.34 44.98 44.61 43.31 44.76 44.41 46.61 43.83 46.49 38.04 40.23 34.97 33.19 33.19 34.64 37.91 38.96 40.43 40.23 40.74 40.74 40.05 39.88
42.82 40.59 37.97 37.69 38.98 38.45 37.13 36.39 34.61 42.44 40.44 38.81 40.26 41.71 42.26 43.71 39.90 37.72 36.46 37.00 35.73 35.35 41.02 44.61 41.77 41.52 40.81 35.14 33.43 34.91 34.99 36.82 39.75 39.34 39.14 38.91 38.57 39.13
38.06 41.95 38.72 34.43 36.44 38.63 38.45 42.65 45.12 45.73 45.00 43.52 44.24 45.59 42.62 42.08 41.17 39.90 38.27 37.00 35.91 34.28 34.45 36.51 39.00 41.30 34.64 36.08 37.55 35.16 37.26 33.42 37.69 38.30 37.35 36.81 37.91 37.65
36.39 39.15 37.91 37.64 39.18 41.71 43.11 44.72 45.97 45.90 44.18 44.08 43.56 43.18 41.25 40.08 38.58 37.78 36.23 35.88 35.19 33.52 32.65 33.92 35.35 36.49 35.85 34.72 33.92 35.27 33.03 34.79 36.78 36.16 35.84 34.47 36.61 37.77
34.84 35.36 35.23 37.33 40.41 41.85 42.62 46.72 46.54 42.57 45.32 45.00 44.47 42.84 40.62 38.70 37.42 36.21 35.80 35.27 34.61 33.16 32.38 33.06 33.80 33.89 34.60 33.77 37.64 34.02 33.69 33.40 35.14 35.31 35.70 34.52 32.42 33.36
33.33 34.47 35.39 38.02 40.29 41.23 42.72 44.17 43.50 44.34 44.90 43.40 42.65 41.16 38.37 37.00 35.46 35.55 35.55 35.01 33.74 33.89 34.19 34.19 34.58 35.31 33.34 31.85 34.82 33.48 33.99 34.98 34.32 32.15 32.86 33.87 33.54 32.57
34.93 36.34 38.16 39.54 39.03 40.11 41.87 41.79 43.11 43.00 42.79 42.27 40.43 38.80 37.64 35.85 34.64 35.01 34.27 34.10 33.56 33.19 33.01 33.74 33.74 33.89 32.59 31.81 30.23 30.51 33.60 33.03 33.06 32.00 33.15 33.28 34.61 33.31
36.60 36.81 37.42 37.33 37.99 40.54 41.73 41.38 40.01 39.44 39.02 38.22 37.36 36.45 35.55 36.00 34.82 34.82 34.46 33.55 33.52 33.31 32.26 31.40 31.72 32.20 33.28 33.64 31.17 30.06 31.56 33.12 35.23 34.28 33.99 33.16 32.32 32.34
34.94 35.38 35.76 37.01 37.81 38.82 38.65 36.82 36.64 36.27 35.73 35.17 34.28 34.10 34.28 35.37 34.10 33.74 33.52 32.69 32.53 32.17 31.22 32.15 33.74 33.89 34.23 32.20 30.65 30.32 30.70 32.74 32.83 33.48 33.42 33.54 33.42 30.62
31.82 32.58 33.10 34.53 36.17 36.05 36.06 35.83 35.06 34.64 34.46 34.28 33.56 33.56 32.83 32.83 33.30 33.24 33.21 32.98 33.13 33.34 33.16 33.15 33.69 34.26 33.63 32.83 31.46 30.99 31.25 31.49 31.69 31.63 32.57 32.49 31.48 31.59
MSLP
1009.56 1010.03 1010.30 1010.22 1010.13 1010.04 1010.25 1010.42 1010.33 1009.66 1008.82 1008.63 1008.47 1008.36 1008.92 1009.11 1009.10 1009.33 1009.42 1009.34 1009.76 1010.05 1010.25 1010.39 1010.65 1011.20 1011.62 1011.85 1012.11 1012.35 1012.59 1012.95 1013.34 1013.66 1013.90 1014.19 1014.36 1014.30
1008.34 1008.65 1008.90 1009.05 1009.22 1009.44 1009.47 1009.44 1009.67 1009.72 1009.04 1008.91 1008.30 1008.19 1008.21 1008.67 1008.78 1008.92 1008.66 1009.07 1009.58 1009.71 1009.79 1009.96 1010.26 1010.58 1010.96 1011.37 1011.49 1011.84 1012.21 1012.32 1012.59 1013.13 1013.49 1013.76 1014.06 1014.24
1007.32 1007.41 1007.65 1008.16 1008.33 1008.52 1008.75 1008.94 1009.06 1009.13 1008.70 1008.42 1008.40 1008.22 1008.15 1007.84 1008.21 1008.80 1008.63 1008.39 1008.42 1009.25 1009.23 1009.22 1009.61 1009.89 1010.21 1010.66 1011.21 1011.53 1011.89 1012.13 1012.56 1012.77 1013.12 1013.31 1013.46 1013.42
1006.18 1006.79 1007.08 1007.45 1007.74 1008.14 1008.36 1008.34 1008.48 1008.65 1008.51 1008.02 1008.20 1007.85 1007.69 1007.57 1007.48 1007.86 1008.55 1008.84 1008.55 1008.73 1009.03 1009.12 1009.19 1009.43 1009.74 1010.04 1010.33 1010.81 1011.39 1011.70 1011.82 1012.20 1012.69 1013.08 1013.35 1013.09
1005.13 1005.45 1005.94 1006.51 1006.88 1007.41 1007.71 1007.96 1008.08 1007.98 1007.86 1007.62 1007.50 1007.63 1007.43 1007.53 1007.68 1007.89 1008.36 1008.76 1008.82 1008.71 1008.88 1009.02 1008.89 1008.97 1009.32 1009.82 1010.12 1010.48 1010.89 1011.05 1011.18 1011.86 1012.29 1012.52 1012.68 1012.95
1004.83 1005.20 1005.10 1004.75 1005.28 1006.26 1006.75 1007.59 1007.33 1007.20 1007.29 1007.28 1007.26 1007.29 1007.31 1007.24 1007.49 1007.42 1007.72 1007.95 1008.23 1008.49 1008.74 1008.90 1009.12 1009.00 1008.82 1009.10 1009.65 1010.29 1010.62 1011.28 1011.48 1011.28 1011.70 1011.94 1011.99 1012.41
1004.78 1004.39 1004.41 1003.99 1004.10 1004.16 1007.23 1006.50 1006.64 1006.58 1006.85 1006.89 1006.68 1006.80 1006.72 1007.32 1006.81 1006.70 1007.01 1007.12 1007.32 1007.81 1008.04 1008.47 1008.75 1009.15 1009.12 1009.24 1009.38 1009.59 1010.12 1009.72 1010.09 1010.72 1010.55 1010.44 1011.40 1011.70
1003.91 1001.79 1004.05 1003.27 1003.49 1005.13 1005.86 1006.25 1006.07 1006.59 1006.11 1006.19 1006.10 1005.82 1005.46 1005.68 1005.71 1005.75 1006.48 1007.23 1007.71 1007.14 1007.37 1007.52 1007.79 1007.87 1007.95 1008.06 1008.09 1008.54 1008.69 1009.32 1009.54 1009.95 1010.50 1010.21 1010.98 1011.38
1003.81 1002.87 1002.78 1002.87 1003.68 1003.39 1004.41 1004.96 1004.61 1004.78 1005.48 1006.14 1005.62 1004.63 1004.15 1004.34 1004.86 1004.70 1005.25 1005.89 1005.68 1005.09 1006.55 1006.93 1007.26 1007.24 1007.02 1006.97 1007.36 1008.01 1008.39 1008.86 1009.46 1009.36 1009.82 1009.93 1009.75 1010.43
1003.75 1003.99 1002.01 1003.85 1003.59 1003.78 1003.59 1004.46 1004.81 1004.68 1004.57 1005.10 1005.14 1004.19 1003.82 1003.74 1003.97 1003.80 1003.73 1004.31 1005.09 1005.26 1005.56 1006.66 1006.74 1006.67 1006.60 1006.55 1006.79 1007.37 1007.66 1008.12 1008.26 1009.16 1008.96 1009.71 1010.09 1010.14
1003.87 1003.32 1003.38 1004.21 1003.95 1004.25 1004.77 1004.70 1004.38 1004.06 1004.21 1004.46 1004.69 1003.84 1003.72 1003.63 1003.95 1004.26 1003.75 1004.39 1005.06 1004.97 1005.06 1005.73 1006.18 1006.76 1007.02 1006.45 1006.49 1006.88 1007.07 1007.68 1008.14 1008.77 1009.40 1009.75 1010.25 1009.91
1003.84 1003.64 1003.73 1004.59 1004.70 1004.67 1004.69 1004.76 1004.16 1004.07 1004.69 1004.12 1003.55 1003.32 1003.11 1003.42 1003.56 1003.45 1003.34 1003.53 1004.07 1004.76 1004.81 1005.47 1005.79 1006.12 1006.91 1006.46 1006.29 1006.56 1006.72 1007.36 1008.00 1008.87 1009.12 1009.23 1010.51 1010.45
1003.84 1003.93 1003.84 1003.84 1004.04 1004.49 1004.09 1004.22 1003.71 1003.84 1003.86 1003.91 1003.93 1003.75 1003.39 1003.11 1002.89 1002.56 1002.50 1002.49 1002.51 1002.42 1002.70 1003.66 1004.65 1005.09 1005.32 1006.11 1006.24 1006.13 1006.34 1006.90 1007.68 1008.26 1008.89 1008.85 1009.94 1011.25
1005.11 1003.26 1003.54 1004.02 1003.58 1004.04 1004.21 1003.90 1003.66 1003.85 1003.88 1003.93 1004.00 1003.39 1002.54 1002.20 1001.55 1002.02 1002.29 1001.90 1001.74 1001.16 1001.14 1001.81 1002.85 1003.40 1004.07 1005.34 1005.66 1005.94 1006.34 1006.66 1007.15 1007.81 1008.54 1009.14 1009.83 1010.74
1005.25 1004.36 1003.95 1004.03 1003.52 1003.41 1004.04 1003.36 1003.17 1002.91 1002.19 1003.22 1003.48 1002.91 1002.08 1001.82 1001.63 1001.36 1002.67 1002.46 1001.54 1001.05 1001.11 1000.77 1000.87 1002.19 1002.84 1003.36 1003.73 1004.31 1005.36 1006.29 1006.82 1007.67 1008.66 1009.21 1010.00 1011.18
1004.50 1004.22 1003.95 1003.33 1003.04 1002.88 1002.59 1003.26 1002.34 1002.29 1002.45 1001.96 1001.76 1001.79 1001.63 1001.92 1001.51 1002.30 1002.12 1002.22 1001.90 1001.54 1001.19 1000.71 1000.74 1001.11 1002.51 1003.00 1003.20 1004.03 1004.28 1004.55 1005.91 1006.83 1008.13 1009.55 1010.08 1010.73
1004.46 1004.01 1003.69 1003.24 1002.21 1002.34 1002.06 1002.06 1001.93 1001.20 1001.64 1001.10 1001.22 1001.61 1001.41 1001.45 1001.51 1001.53 1001.94 1001.79 1001.71 1001.60 1001.80 1001.64 1001.08 1001.25 1001.84 1002.58 1003.61 1003.91 1004.38 1004.74 1005.41 1005.62 1006.66 1008.56 1009.68 1010.02
1003.88 1003.53 1003.04 1002.22 1001.64 1001.52 1001.18 1000.67 1000.74 1001.08 1000.62 1000.88 1001.00 1001.30 1001.47 1001.09 1001.24 1001.28 1001.45 1001.61 1001.70 1001.45 1001.40 1001.59 1001.83 1002.25 1002.56 1003.19 1003.11 1003.90 1003.99 1003.58 1004.90 1006.28 1007.38 1007.53 1009.00 1010.52
1002.82 1002.94 1002.05 1001.19 1001.09 1001.10 1000.94 1001.05 1000.47 1000.62 999.85 1000.36 1000.67 1000.79 1001.00 1000.72 1000.77 1001.05 1001.12 1001.09 1001.56 1001.75 1001.59 1001.32 1001.48 1002.20 1002.66 1003.24 1004.18 1004.80 1003.73 1004.54 1005.17 1005.98 1007.35 1007.93 1008.46 1010.33
1002.43 1001.98 1000.87 1000.50 1000.63 1000.55 1000.26 999.96 1000.02 999.79 1000.04 1000.22 1000.43 1000.52 1000.51 1000.52 1000.46 1000.73 1000.93 1001.34 1001.51 1001.95 1002.10 1002.17 1002.38 1002.13 1002.94 1003.63 1004.41 1005.34 1004.75 1005.56 1006.44 1006.51 1008.63 1008.94 1009.71 1010.33
1001.31 1000.80 1000.38 1000.17 1000.16 1000.08 999.93 1000.12 1000.28 1000.31 1000.40 1000.49 1000.27 1000.60 1000.80 1000.48 1000.38 1000.75 1000.96 1001.32 1001.68 1002.14 1002.58 1002.90 1003.19 1003.02 1003.18 1003.30 1004.00 1006.02 1006.87 1006.59 1007.28 1007.27 1009.14 1009.90 1010.58 1010.91
1001.60 1001.08 1000.76 1000.58 1000.49 1000.47 1000.48 1000.62 1000.66 1000.42 1000.40 1000.51 1000.75 1000.93 1000.70 1000.38 1000.54 1000.57 1001.10 1001.33 1002.07 1002.60 1002.96 1003.18 1003.35 1003.47 1003.59 1004.07 1005.02 1005.80 1006.63 1008.09 1007.99 1008.76 1009.62 1010.11 1010.61 1010.53
1002.75 1002.21 1001.69 1001.26 1001.11 1001.09 1000.94 1000.85 1000.70 1000.61 1000.47 1000.46 1000.78 1001.04 1000.97 1000.81 1000.78 1001.10 1001.47 1001.87 1002.29 1002.94 1003.25 1003.49 1003.78 1004.09 1004.44 1004.97 1005.60 1006.50 1007.44 1007.79 1008.31 1009.43 1009.98 1010.06 1010.91 1010.92
Wind_Speed
16 17 15 13 12 13 13 13 13 14 14 13 12 11 7 9 10 11 11 11 14 14 15 16 16 15 15 16 15 14 15 15 12 12 12 13 13 14
14 17 16 14 14 12 13 12 12 12 14 13 13 13 9 9 8 11 12 6 11 14 14 15 14 15 16 16 16 15 15 14 14 13 14 13 13 12
16 16 18 16 11 10 10 10 11 10 12 12 14 14 15 13 12 9 12 11 9 16 17 16 15 16 17 16 13 13 14 13 12 13 13 13 14 15
17 15 14 9 11 11 10 14 12 11 11 15 12 12 15 14 11 13 8 8 9 9 15 14 16 17 16 16 16 15 13 13 15 13 12 11 12 12
16 14 13 11 11 9 11 11 11 9 11 11 11 9 11 9 6 5 7 7 6 4 7 9 14 16 15 13 13 13 15 16 14 12 10 11 10 10
14 12 12 10 8 8 9 13 11 10 10 9 10 9 9 9 7 6 5 6 6 5 6 6 9 11 13 13 13 15 15 13 12 14 12 12 12 12
14 14 11 10 7 2 12 14 12 9 9 9 9 9 8 4 6 5 7 5 4 4 4 6 6 7 8 10 11 15 14 14 13 15 15 17 14 13
16 10 16 11 11 16 18 22 16 14 12 10 11 13 14 10 10 8 5 3 4 7 6 8 8 9 9 9 17 17 20 18 17 18 16 16 15 14
9 6 9 3 9 10 13 18 16 17 18 15 14 14 14 12 11 11 9 7 10 4 8 5 7 10 9 9 15 15 14 14 14 16 15 17 19 19
11 11 6 10 7 4 3 7 9 8 5 5 12 15 14 12 9 13 12 11 3 2 5 5 5 7 6 7 14 15 17 18 18 17 18 16 16 20
13 11 7 9 7 5 8 9 10 10 4 10 15 15 13 12 6 6 2 3 4 4 7 4 3 2 2 3 8 14 15 14 15 15 13 16 17 21
13 12 4 9 11 8 7 10 10 8 4 8 10 10 7 6 7 8 6 9 4 2 4 7 4 5 2 3 3 7 8 11 12 14 16 17 16 8
8 8 5 6 10 12 10 8 11 2 1 4 8 9 7 7 6 6 8 9 9 8 8 9 5 4 2 2 1 5 7 6 7 10 17 19 16 10
14 8 0 8 10 10 10 11 11 6 2 4 7 9 7 7 4 4 6 5 5 8 11 17 6 9 6 5 5 5 6 7 8 9 8 12 11 10
9 10 13 12 14 12 15 13 8 5 1 4 8 8 3 3 4 2 3 2 1 2 4 17 7 9 9 4 6 8 11 8 8 9 7 8 6 6
8 10 13 11 12 10 3 8 7 7 6 6 6 5 1 3 2 2 2 2 2 2 4 1 5 9 3 1 3 9 9 10 11 11 9 7 6 7
14 12 11 9 6 6 6 8 8 5 6 5 5 6 5 4 3 2 2 2 3 1 0 3 5 7 6 6 4 8 8 7 10 12 14 9 9 11
12 11 10 8 7 5 5 7 3 4 6 6 5 5 5 4 4 2 2 3 4 3 3 4 6 5 3 5 2 9 8 12 13 13 9 10 8 6
9 10 11 8 6 6 5 7 6 6 5 5 6 4 3 3 3 2 2 2 2 2 3 5 6 4 6 4 1 13 10 10 9 8 5 4 6 5
8 9 9 6 4 4 4 4 5 4 4 4 4 4 3 2 2 2 3 2 3 3 3 3 2 3 4 3 4 4 11 8 4 8 4 4 5 12
6 6 4 1 2 2 3 3 3 3 3 3 3 2 2 2 1 2 2 4 4 3 4 5 5 8 6 6 7 4 5 12 7 8 5 5 3 2
6 4 4 3 3 3 3 2 2 1 1 0 1 1 1 2 2 4 4 6 5 6 7 6 5 5 4 7 11 9 8 6 12 14 11 6 2 5
8 7 6 6 6 5 4 3 2 2 2 2 2 1 2 4 5 6 7 8 9 8 8 7 5 6 8 8 10 8 13 10 6 7 5 10 9 10
Wind_Direction
222 223 232 234 241 241 243 251 261 272 268 272 272 267 233 247 239 241 246 214 205 210 208 203 197 194 192 194 196 195 193 198 196 207 216 228 232 232
222 223 224 230 237 240 244 245 245 254 269 268 275 282 255 238 252 238 243 205 201 207 208 205 199 193 192 197 197 193 201 193 191 202 215 225 235 233
228 233 232 234 242 244 243 241 244 242 252 259 264 273 273 257 244 240 257 234 223 209 208 202 197 194 193 199 197 196 199 191 194 204 215 222 225 231
213 215 219 221 236 241 254 253 244 243 246 255 254 264 270 275 258 254 237 258 246 208 216 206 193 196 200 197 191 195 196 189 200 203 209 217 233 238
213 204 207 211 222 228 236 239 243 239 243 251 256 252 264 264 250 248 249 244 249 263 226 218 205 199 198 204 199 192 199 202 194 198 193 208 221 188
218 209 208 199 211 236 248 242 242 243 248 248 254 255 248 243 232 231 229 217 227 208 218 226 214 209 199 192 197 208 205 211 206 188 192 205 192 177
234 228 235 234 208 231 269 273 253 243 242 241 246 248 235 214 218 236 250 240 211 187 200 205 198 209 219 213 212 207 223 195 187 218 198 182 179 167
244 244 247 206 217 216 232 247 256 260 250 236 243 241 242 232 238 234 221 182 271 198 206 223 193 210 206 205 204 197 201 205 197 197 195 168 167 159
306 284 264 264 227 205 223 237 249 245 239 257 260 250 258 249 232 230 207 209 238 192 196 232 187 219 209 204 192 195 196 198 200 182 176 177 165 154
302 295 324 283 267 265 258 277 279 268 250 220 238 259 265 272 247 236 225 227 11 137 173 206 190 223 199 212 183 189 191 194 183 194 175 171 161 148
305 305 299 284 306 337 289 272 271 280 289 282 278 283 284 280 257 301 248 143 254 242 198 143 195 116 304 203 183 182 181 187 185 183 170 161 165 144
297 285 290 285 311 269 259 264 258 261 247 300 304 294 288 282 249 219 241 227 190 338 207 202 161 142 210 210 180 191 184 177 171 171 167 152 161 172
286 286 284 233 244 264 248 247 255 44 280 304 291 288 277 272 259 230 225 228 219 232 174 177 169 173 122 136 190 182 176 159 174 172 171 159 164 181
290 294 354 238 255 254 255 246 252 267 260 261 247 264 267 269 251 260 265 257 295 272 165 185 181 181 154 161 181 163 182 175 167 163 164 158 147 139
284 288 291 273 263 266 248 251 245 248 254 256 264 266 247 283 331 49 277 254 115 18 238 197 179 189 191 181 164 180 157 179 171 157 150 148 137 130
286 294 309 290 271 276 285 262 244 240 233 244 251 261 237 246 238 215 233 215 280 330 0 131 165 165 142 130 155 164 178 167 165 156 135 126 127 122
301 292 293 288 261 238 229 240 251 240 249 249 260 274 264 258 249 186 227 211 231 208 289 360 69 97 89 133 132 170 156 152 159 146 141 143 162 173
274 279 274 270 259 260 258 265 266 258 261 271 260 254 254 240 242 196 190 223 223 189 156 146 134 107 111 29 87 166 165 154 153 153 164 162 148 163
264 263 261 256 242 231 239 253 253 261 268 264 269 278 249 222 197 216 198 163 185 182 174 155 166 174 172 133 76 357 161 148 161 131 129 132 128 160
240 248 257 248 211 227 249 261 280 290 289 285 287 294 268 237 196 205 183 186 161 151 124 60 52 69 128 115 99 48 43 103 139 97 95 75 67 124
257 249 264 251 273 293 299 321 319 301 295 303 320 279 237 240 182 165 137 129 115 121 119 81 63 91 94 103 90 92 46 62 82 99 106 94 97 91
357 8 14 18 27 11 7 348 298 322 7 39 125 173 159 109 107 96 102 106 97 100 97 89 61 67 71 104 109 97 89 90 78 82 75 62 142 153
3 3 8 19 22 17 12 1 6 24 48 62 70 96 101 99 90 96 102 104 111 108 103 89 79 74 84 92 103 115 121 105 108 122 92 70 69 65